Hourly Data Report for October 26, 2020

MUSKOKA
ONTARIO
Current Station Operator: NAVCAN

44°58'29.000" N
79°18'12.000" W
281.90 m
6115529
71532
YQA

Download Data

Hourly Data (October 2020)
Hourly Data Report for October 26, 2020
TIME Temp Definition
°C
Dew Point Definition
°C
Rel Hum Definition
%
Wind Dir Definition
10's deg

Wind Spd Definition
km/h
Visibility Definition
km
Stn Press Definition
kPa
Hmdx Definition


Wind Chill Definition


Weather Definition


00:00 1.9 -7.2 51 LegendMM 4 16.1 98.91     LegendNANA
01:00 1.7 -7.1 52 7 5 16.1 98.87     LegendNANA
02:00 1.5 -6.5 56 LegendMM 4 16.1 98.77     LegendNANA
03:00 2.0 -6.4 54 LegendMM 4 16.1 98.67     LegendNANA
04:00 1.8 -5.7 58 9 5 16.1 98.62     LegendNANA
05:00 1.9 -5.1 60 LegendMM 4 16.1 98.64     LegendNANA
06:00 1.2 -3.2 72   0 16.1 98.59     Rain
07:00 0.6 -1.5 86 9 5 16.1 98.57     Rain
08:00 0.4 -0.8 92 LegendMM 4 14.5 98.60     Rain
09:00 0.3 -0.4 95 33 5 16.1 98.64     Rain
10:00 0.5 0.1 97 32 8 8.1 98.63     Rain,Fog
11:00 1.3 0.9 97 LegendMM 4 11.3 98.53     Rain
12:00 2.0 1.4 96 32 5 16.1 98.51     LegendNANA
13:00 2.6 1.8 95 24 5 16.1 98.52     LegendNANA
14:00 2.7 1.9 94 27 8 16.1 98.52     LegendNANA
15:00 2.8 2.1 95 30 5 16.1 98.56     Rain
16:00 2.9 2.0 94 31 5 16.1 98.53     LegendNANA
17:00 2.6 2.3 98   0 16.1 98.57     LegendNANA
18:00 2.7 2.4 98   0 12.9 98.62     Rain
19:00 2.6 2.3 98 1 5 4.8 98.71     Fog
20:00 2.5 2.2 98   0 16.1 98.77     LegendNANA
21:00 2.2 1.9 98   0 16.1 98.78     LegendNANA
22:00 1.9 1.6 98 33 5 16.1 98.88     LegendNANA
23:00 1.7 0.8 94 34 11 16.1 98.93     LegendNANA

Notes on Data Quality.

Legend

  • E = Estimated
  • M = Missing
  • NA = Not Available*
  • [empty] = Indicates an unobserved value
Date modified: